This is the latest recevied weather packets stored in our database for station/object GW4288. If no packets are shown the sender has not sent any weather packets the latest 10 day(s).
| Time | Temp. | Humidity | Pressure | Rain* | Wind** | Luminosity | Snow |
|---|---|---|---|---|---|---|---|
| 1788279854 | 22.78° C | 61% | 1021.5 hPa | 0 mm | - | 63 W/m² | - |
| 1788279651 | 22.78° C | 59% | 1021.5 hPa | 0 mm | - | 60 W/m² | - |
| 1788279530 | 22.78° C | 57% | 1021.6 hPa | 0 mm | - | 59 W/m² | - |
| 1788279410 | 22.78° C | 60% | 1021.6 hPa | 0 mm | - | 62 W/m² | - |
| 1788279290 | 22.78° C | 58% | 1021.6 hPa | 0 mm | - | 62 W/m² | - |
| 1788279255 | 22.78° C | 55% | 1021.4 hPa | 0 mm | - | 63 W/m² | - |
| 1788279032 | 23.33° C | 61% | 1021.5 hPa | 0 mm | - | 65 W/m² | - |
| 1788278925 | 23.33° C | 56% | 1021.4 hPa | 0 mm | - | 68 W/m² | - |
| 1788278792 | 23.33° C | 59% | 1021.5 hPa | 0 mm | - | 70 W/m² | - |
| 1788278674 | 23.33° C | 54% | 1021.4 hPa | 0 mm | - | 71 W/m² | - |
| 1788278656 | 23.89° C | 56% | 1021.6 hPa | 0 mm | - | 78 W/m² | - |
| 1788278432 | 23.89° C | 56% | 1021.7 hPa | 0 mm | - | 82 W/m² | - |
| 1788278306 | 23.89° C | 55% | 1021.4 hPa | 0 mm | - | 86 W/m² | - |
| 1788278186 | 23.33° C | 55% | 1021.6 hPa | 0 mm | - | 90 W/m² | - |
| 1788278066 | 23.33° C | 53% | 1021.6 hPa | 0 mm | - | 96 W/m² | - |
| 1788277946 | 22.78° C | 55% | 1021.5 hPa | 0 mm | - | 104 W/m² | - |
| 1788277826 | 23.33° C | 59% | 1021.5 hPa | 0 mm | - | 108 W/m² | - |
| 1788277707 | 22.78° C | 56% | 1021.6 hPa | 0 mm | - | 114 W/m² | - |
| 1788277587 | 22.78° C | 57% | 1021.3 hPa | 0 mm | - | 95 W/m² | - |
| 1788277466 | 22.78° C | 56% | 1021.5 hPa | 0 mm | - | 82 W/m² | - |
| 1788277346 | 22.78° C | 60% | 1021.4 hPa | 0 mm | - | 49 W/m² | - |
| 1788277226 | 22.22° C | 58% | 1021.3 hPa | 0 mm | - | 77 W/m² | - |
| 1788277159 | 22.22° C | 55% | 1021.5 hPa | 0 mm | - | 120 W/m² | - |
| 1788276987 | 22.78° C | 56% | 1021.5 hPa | 0 mm | - | 94 W/m² | - |
| 1788276870 | 22.78° C | 55% | 1021.3 hPa | 0 mm | - | 90 W/m² | - |
* Rain latest hour (hover to see other rain measurements)
** Current wind speed in m/s (hover to see current wind gust speed)